,,PA_Meas_PMT16A,,PR_Meas_QMR101_102,,RH_Meas_QMH101,,SR_Meas_QMS101,,TA_Meas_QMH101,,GenWind,,GenWind,
time,status,PA,status,PR,status,RH,status,SR,status,TA,status,DirAvg,status,SpdAvg,
2015-08-21, 07:32:04,VALID,919.642,VALID,0,VALID,100.652,VALID,112.491,VALID,20.2489,VALID,16,VALID,0,
2015-08-21, 07:33:04,VALID,919.688,VALID,0,VALID,100.698,VALID,108.516,VALID,20.2879,VALID,13,VALID,0.948047,
2015-08-21, 07:34:04,VALID,919.711,VALID,0,VALID,100.728,VALID,103.788,VALID,20.2684,VALID,3,VALID,1.48828,
2015-08-21, 07:35:04,VALID,919.723,VALID,0,VALID,100.705,VALID,96.0524,VALID,20.2879,VALID,358,VALID,0.871484,
2015-08-21, 07:38:04,VALID,919.769,VALID,0,VALID,100.682,VALID,98.7384,VALID,20.3479,VALID,6,VALID,1.0207,
2015-08-21, 07:39:04,VALID,919.758,VALID,0,VALID,100.713,VALID,98.9533,VALID,20.3269,VALID,359,VALID,1.46055,
2015-08-21, 07:40:04,VALID,919.785,VALID,0,VALID,100.69,VALID,102.284,VALID,20.3674,VALID,350,VALID,1.35625,
2015-08-21, 07:41:04,VALID,919.777,VALID,0,VALID,100.682,VALID,118.937,VALID,20.4259,VALID,5,VALID,1.38164,
2015-08-21, 07:42:04,VALID,919.799,VALID,0,VALID,100.644,VALID,141.285,VALID,20.504,VALID,21,VALID,1.55742,
2015-08-21, 07:43:04,VALID,919.808,VALID,0,VALID,100.675,VALID,124.095,VALID,20.504,VALID,22,VALID,0.796875,
2015-08-21, 07:44:04,VALID,919.864,VALID,0,VALID,100.698,VALID,132.69,VALID,20.504,VALID,331,VALID,1.1625,
2015-08-21, 07:45:04,VALID,919.855,VALID,0,VALID,100.766,VALID,169.972,VALID,20.4439,VALID,1,VALID,2.28125,
2015-08-21, 07:46:04,VALID,919.906,VALID,0,VALID,100.721,VALID,143.864,VALID,20.543,VALID,348,VALID,0.408984,
2015-08-21, 07:47:04,VALID,919.854,VALID,0,VALID,100.713,VALID,135.376,VALID,20.582,VALID,350,VALID,0,
2015-08-21, 07:48:04,VALID,919.893,VALID,0,VALID,100.721,VALID,120.119,VALID,20.6015,VALID,16,VALID,0,
2015-08-21, 07:49:04,VALID,919.888,VALID,0,VALID,100.69,VALID,106.797,VALID,20.6795,VALID,17,VALID,0,
2015-08-21, 07:50:04,VALID,919.854,VALID,0,VALID,100.66,VALID,241.528,VALID,20.7576,VALID,15,VALID,0,
2015-08-21, 07:51:04,VALID,919.854,VALID,0,VALID,100.759,VALID,126.458,VALID,20.7185,VALID,3,VALID,0,
2015-08-21, 07:52:04,VALID,919.82,VALID,0,VALID,100.743,VALID,130.863,VALID,20.7576,VALID,1,VALID,0,
2015-08-21, 07:53:04,VALID,919.844,VALID,0,VALID,100.743,VALID,138.492,VALID,20.7755,VALID,18,VALID,0.241016,
2015-08-21, 07:54:04,VALID,919.827,VALID,0,VALID,100.743,VALID,138.707,VALID,20.756,VALID,6,VALID,0,
2015-08-21, 07:55:04,VALID,919.831,VALID,0,VALID,100.713,VALID,127.318,VALID,20.6959,VALID,19,VALID,0,
2015-08-21, 07:56:04,VALID,919.807,VALID,0,VALID,100.621,VALID,137.417,VALID,20.756,VALID,18,VALID,0,
2015-08-21, 07:57:04,VALID,919.836,VALID,0,VALID,100.599,VALID,137.202,VALID,20.7349,VALID,2,VALID,1.44336,
2015-08-21, 07:58:04,VALID,919.829,VALID,0,VALID,100.538,VALID,126.566,VALID,20.834,VALID,10,VALID,0,
2015-08-21, 07:59:04,VALID,919.895,VALID,0,VALID,100.545,VALID,117.756,VALID,20.8519,VALID,359,VALID,0.705078,
2015-08-21, 08:00:04,VALID,919.879,VALID,0,VALID,100.461,VALID,132.153,VALID,20.7739,VALID,291,VALID,0,
2015-08-21, 08:01:04,VALID,919.911,VALID,0,VALID,100.294,VALID,154.93,VALID,20.7544,VALID,354,VALID,0,
2015-08-21, 08:02:04,VALID,919.934,VALID,0,VALID,100.134,VALID,171.154,VALID,20.7934,VALID,354,VALID,0,
2015-08-21, 08:03:04,VALID,919.93,VALID,0,VALID,99.9659,VALID,176.526,VALID,20.795,VALID,7,VALID,0.185937,
2015-08-21, 08:04:04,VALID,919.978,VALID,0,VALID,99.8439,VALID,147.087,VALID,20.8145,VALID,8,VALID,2.27344,
2015-08-21, 08:05:04,VALID,919.971,VALID,0,VALID,99.6228,VALID,123.45,VALID,20.756,VALID,2,VALID,1.51953,
2015-08-21, 08:06:04,VALID,920.005,VALID,0,VALID,99.5466,VALID,133.334,VALID,20.7365,VALID,355,VALID,1.45117,
2015-08-21, 08:07:04,VALID,920.028,VALID,0,VALID,99.417,VALID,152.996,VALID,20.6975,VALID,34,VALID,0.946094,
2015-08-21, 08:08:04,VALID,920.001,VALID,0,VALID,99.4932,VALID,170.187,VALID,20.7576,VALID,26,VALID,1.19883,
2015-08-21, 08:09:04,VALID,920.02,VALID,0,VALID,99.5389,VALID,175.237,VALID,20.7365,VALID,359,VALID,0.308984,
2015-08-21, 08:10:04,VALID,919.984,VALID,0,VALID,99.0663,VALID,177.923,VALID,20.6975,VALID,282,VALID,0,
2015-08-21, 08:11:04,VALID,920.016,VALID,0,VALID,98.9138,VALID,169.435,VALID,20.717,VALID,285,VALID,0,
2015-08-21, 08:12:04,VALID,919.957,VALID,0,VALID,99.0206,VALID,165.674,VALID,20.795,VALID,285,VALID,0,
2015-08-21, 08:13:04,VALID,919.921,VALID,0,VALID,98.9367,VALID,207.576,VALID,20.795,VALID,297,VALID,0,
2015-08-21, 08:14:04,VALID,919.933,VALID,0,VALID,98.9824,VALID,142.682,VALID,20.873,VALID,326,VALID,0,
2015-08-21, 08:15:04,VALID,919.901,VALID,0,VALID,98.8605,VALID,155.897,VALID,20.8925,VALID,257,VALID,0,
2015-08-21, 08:16:04,VALID,919.906,VALID,0,VALID,98.6851,VALID,165.244,VALID,20.8925,VALID,247,VALID,0,
2015-08-21, 08:17:04,VALID,919.934,VALID,0,VALID,98.6927,VALID,165.567,VALID,20.9316,VALID,214,VALID,0,
2015-08-21, 08:18:04,VALID,919.942,VALID,0,VALID,98.708,VALID,172.443,VALID,20.9706,VALID,214,VALID,0,
2015-08-21, 08:19:04,VALID,919.937,VALID,0,VALID,98.3726,VALID,169.435,VALID,20.9706,VALID,208,VALID,0,
2015-08-21, 08:20:04,VALID,919.96,VALID,0,VALID,98.243,VALID,146.442,VALID,21.0096,VALID,208,VALID,0,
2015-08-21, 08:21:04,VALID,919.966,VALID,0,VALID,98.2506,VALID,112.921,VALID,21.0486,VALID,208,VALID,0,
2015-08-21, 08:22:04,VALID,919.952,VALID,0,VALID,97.6788,VALID,93.4738,VALID,21.0096,VALID,226,VALID,0,
2015-08-21, 08:29:04,VALID,920.044,VALID,0,VALID,98.3954,VALID,109.697,VALID,20.8535,VALID,235,VALID,0,
2015-08-21, 08:30:04,VALID,920.037,VALID,0,VALID,98.6775,VALID,116.466,VALID,20.8714,VALID,235,VALID,0,
2015-08-21, 08:31:04,VALID,920.034,VALID,0,VALID,98.9291,VALID,118.078,VALID,20.9316,VALID,325,VALID,0,
2015-08-21, 08:32:04,VALID,920.023,VALID,0,VALID,98.708,VALID,118.615,VALID,20.912,VALID,26,VALID,0,
2015-08-21, 08:33:04,VALID,919.957,VALID,0,VALID,98.5098,VALID,124.417,VALID,20.8925,VALID,26,VALID,0,
2015-08-21, 08:34:04,VALID,919.955,VALID,0,VALID,98.4259,VALID,142.682,VALID,20.873,VALID,26,VALID,0,
2015-08-21, 08:35:04,VALID,919.92,VALID,0,VALID,98.5936,VALID,169.542,VALID,20.9105,VALID,349,VALID,0,
2015-08-21, 08:36:04,VALID,919.927,VALID,0,VALID,98.708,VALID,196.08,VALID,20.969,VALID,4,VALID,0,
2015-08-21, 08:37:04,VALID,919.905,VALID,0,VALID,98.7918,VALID,221.114,VALID,21.0486,VALID,351,VALID,0,
2015-08-21, 08:38:04,VALID,919.924,VALID,0,VALID,98.7995,VALID,254.098,VALID,21.1266,VALID,353,VALID,0,
2015-08-21, 08:39:04,VALID,919.949,VALID,0,VALID,98.9596,VALID,278.38,VALID,21.2437,VALID,353,VALID,0,
2015-08-21, 08:40:04,VALID,919.972,VALID,0,VALID,98.7766,VALID,309.216,VALID,21.3412,VALID,352,VALID,0,
2015-08-21, 08:41:04,VALID,919.997,VALID,0,VALID,97.999,VALID,472.526,VALID,21.3608,VALID,311,VALID,0,
2015-08-21, 08:42:04,VALID,920.019,VALID,0,VALID,96.4133,VALID,404.516,VALID,21.3201,VALID,296,VALID,0,
2015-08-21, 08:43:04,VALID,919.991,VALID,0,VALID,95.3689,VALID,373.788,VALID,21.2632,VALID,286,VALID,0,
2015-08-21, 08:44:04,VALID,920.002,VALID,0,VALID,95.7196,VALID,279.025,VALID,21.2031,VALID,288,VALID,0,
2015-08-21, 08:45:04,VALID,919.994,VALID,0,VALID,97.0461,VALID,284.182,VALID,21.3006,VALID,323,VALID,0,
2015-08-21, 08:46:04,VALID,919.949,VALID,0,VALID,96.9698,VALID,446.525,VALID,21.3786,VALID,17,VALID,1.52852,
2015-08-21, 08:47:04,VALID,919.964,VALID,0,VALID,97.1376,VALID,410.103,VALID,21.4762,VALID,15,VALID,0,
2015-08-21, 08:48:04,VALID,919.954,VALID,0,VALID,97.3968,VALID,453.831,VALID,21.6323,VALID,26,VALID,0,
2015-08-21, 08:49:04,VALID,919.955,VALID,0,VALID,97.3586,VALID,409.458,VALID,21.8664,VALID,358,VALID,0,
2015-08-21, 08:50:04,VALID,919.94,VALID,0,VALID,95.7577,VALID,473.063,VALID,22.003,VALID,314,VALID,0,
2015-08-21, 08:51:04,VALID,919.924,VALID,0,VALID,95.8035,VALID,486.064,VALID,22.2567,VALID,346,VALID,0,
2015-08-21, 08:52:04,VALID,919.94,VALID,0,VALID,93.951,VALID,520.552,VALID,22.4696,VALID,1,VALID,0,
2015-08-21, 08:53:04,VALID,919.905,VALID,0,VALID,88.95,VALID,292.885,VALID,22.6079,VALID,359,VALID,0.00195313,
2015-08-21, 08:54:04,VALID,919.911,VALID,0,VALID,89.8267,VALID,474.997,VALID,22.6452,VALID,2,VALID,0,
2015-08-21, 08:55:04,VALID,919.851,VALID,0,VALID,88.0276,VALID,300.513,VALID,22.6647,VALID,8,VALID,0,
2015-08-21, 08:56:04,VALID,919.832,VALID,0,VALID,88.2944,VALID,582.546,VALID,22.6647,VALID,23,VALID,1.16641,
2015-08-21, 08:57:04,VALID,919.827,VALID,0,VALID,89.7505,VALID,580.612,VALID,22.6843,VALID,25,VALID,0.782031,
2015-08-21, 08:58:04,VALID,919.817,VALID,0,VALID,91.603,VALID,587.166,VALID,22.7623,VALID,42,VALID,0,
2015-08-21, 08:59:04,VALID,919.797,VALID,0,VALID,90.9855,VALID,555.041,VALID,22.9575,VALID,28,VALID,0,
2015-08-21, 09:00:04,VALID,919.844,VALID,0,VALID,89.2397,VALID,536.454,VALID,23.1917,VALID,29,VALID,0,
2015-08-21, 09:01:04,VALID,919.873,VALID,0,VALID,83.1638,VALID,530.759,VALID,23.2893,VALID,269,VALID,0,
2015-08-21, 09:02:04,VALID,919.879,VALID,0,VALID,84.9325,VALID,493.585,VALID,23.3106,VALID,45,VALID,0,
2015-08-21, 09:03:04,VALID,919.879,VALID,0,VALID,84.8715,VALID,573.951,VALID,23.4454,VALID,9,VALID,0.995313,
2015-08-21, 09:04:04,VALID,919.838,VALID,0,VALID,83.0038,VALID,550.958,VALID,23.5235,VALID,17,VALID,0.0625,
2015-08-21, 09:05:04,VALID,919.86,VALID,0,VALID,83.1029,VALID,577.174,VALID,23.543,VALID,32,VALID,1.21797,
2015-08-21, 09:06:04,VALID,919.889,VALID,0,VALID,83.9643,VALID,473.171,VALID,23.6797,VALID,22,VALID,1.05313,
2015-08-21, 09:07:04,VALID,919.896,VALID,0,VALID,83.4459,VALID,474.03,VALID,23.9139,VALID,36,VALID,0,
2015-08-21, 09:08:04,VALID,919.91,VALID,0,VALID,80.7091,VALID,564.818,VALID,24.0896,VALID,26,VALID,0,
2015-08-21, 09:09:04,VALID,919.911,VALID,0,VALID,78.0104,VALID,512.602,VALID,24.1092,VALID,329,VALID,0,
2015-08-21, 09:10:04,VALID,919.932,VALID,0,VALID,79.8782,VALID,224.767,VALID,24.0896,VALID,19,VALID,0.151562,
2015-08-21, 09:11:04,VALID,919.932,VALID,0,VALID,78.9862,VALID,562.884,VALID,24.0311,VALID,341,VALID,0,
2015-08-21, 09:12:04,VALID,919.948,VALID,0,VALID,79.4436,VALID,584.802,VALID,23.9335,VALID,22,VALID,0.402734,
2015-08-21, 09:13:04,VALID,919.965,VALID,0,VALID,82.7064,VALID,493.692,VALID,23.7382,VALID,18,VALID,0.625,
2015-08-21, 09:14:04,VALID,919.964,VALID,0,VALID,83.7051,VALID,429.979,VALID,23.6211,VALID,19,VALID,0,
2015-08-21, 09:15:04,VALID,919.993,VALID,0,VALID,84.3226,VALID,273.008,VALID,23.6602,VALID,10,VALID,0.0160156,
2015-08-21, 09:16:04,VALID,920.036,VALID,0,VALID,83.1867,VALID,255.495,VALID,23.7968,VALID,30,VALID,0,
2015-08-21, 09:17:04,VALID,920.039,VALID,0,VALID,82.2338,VALID,226.486,VALID,23.8749,VALID,19,VALID,0,
2015-08-21, 09:18:04,VALID,919.982,VALID,0,VALID,80.9378,VALID,204.783,VALID,23.8358,VALID,31,VALID,0.455078,
2015-08-21, 09:19:04,VALID,920.021,VALID,0,VALID,82.1804,VALID,216.494,VALID,23.6974,VALID,37,VALID,0.326562,
2015-08-21, 09:20:04,VALID,919.996,VALID,0,VALID,83.1715,VALID,252.809,VALID,23.6193,VALID,22,VALID,0,
2015-08-21, 09:21:04,VALID,920.034,VALID,0,VALID,82.2109,VALID,392.268,VALID,23.6016,VALID,349,VALID,0,
2015-08-21, 09:22:04,VALID,920.017,VALID,0,VALID,80.8158,VALID,292.777,VALID,23.4827,VALID,341,VALID,0,
2015-08-21, 09:23:04,VALID,920.041,VALID,0,VALID,82.554,VALID,241.313,VALID,23.465,VALID,353,VALID,0,
2015-08-21, 09:24:04,VALID,920.033,VALID,0,VALID,82.4091,VALID,252.379,VALID,23.4046,VALID,311,VALID,0,
2015-08-21, 09:25:04,VALID,920.037,VALID,0,VALID,82.554,VALID,289.124,VALID,23.4437,VALID,316,VALID,0,
2015-08-21, 09:26:04,VALID,920.027,VALID,0,VALID,83.6746,VALID,240.453,VALID,23.5412,VALID,318,VALID,0,
2015-08-21, 09:27:04,VALID,920.004,VALID,0,VALID,81.9136,VALID,232.18,VALID,23.5821,VALID,325,VALID,0,
2015-08-21, 09:28:04,VALID,920.007,VALID,0,VALID,82.6683,VALID,234.329,VALID,23.5412,VALID,21,VALID,0,
2015-08-21, 09:29:04,VALID,919.992,VALID,0,VALID,82.2109,VALID,238.949,VALID,23.5217,VALID,16,VALID,0,
2015-08-21, 09:30:04,VALID,920.015,VALID,0,VALID,82.3329,VALID,245.933,VALID,23.465,VALID,8,VALID,0,
2015-08-21, 09:31:04,VALID,920.021,VALID,0,VALID,81.0064,VALID,251.412,VALID,23.4064,VALID,19,VALID,0,
2015-08-21, 09:32:04,VALID,920.006,VALID,0,VALID,81.2122,VALID,252.702,VALID,23.3265,VALID,287,VALID,0.223438,
2015-08-21, 09:33:04,VALID,920.011,VALID,0,VALID,82.2567,VALID,276.983,VALID,23.1899,VALID,20,VALID,0.0078125,
2015-08-21, 09:34:04,VALID,920.055,VALID,0,VALID,84.3302,VALID,300.083,VALID,23.1509,VALID,17,VALID,0,
2015-08-21, 09:35:04,VALID,920.046,VALID,0,VALID,84.6428,VALID,331.671,VALID,23.2094,VALID,12,VALID,0,
2015-08-21, 09:36:04,VALID,920.006,VALID,0,VALID,81.8907,VALID,377.333,VALID,23.2698,VALID,14,VALID,0.0328125,
2015-08-21, 09:37:04,VALID,920.021,VALID,0,VALID,81.9593,VALID,351.547,VALID,23.2893,VALID,31,VALID,0,
2015-08-21, 09:38:04,VALID,919.945,VALID,0,VALID,82.4777,VALID,355.523,VALID,23.3674,VALID,358,VALID,0.003125,
2015-08-21, 09:39:04,VALID,919.968,VALID,0,VALID,82.958,VALID,426.541,VALID,23.465,VALID,14,VALID,0,
2015-08-21, 09:40:04,VALID,919.97,VALID,0,VALID,81.7459,VALID,322.431,VALID,23.5626,VALID,6,VALID,0.207813,
2015-08-21, 09:41:04,VALID,919.949,VALID,0,VALID,80.1831,VALID,479.188,VALID,23.7169,VALID,20,VALID,0,
2015-08-21, 09:42:04,VALID,919.94,VALID,0,VALID,80.1069,VALID,473.601,VALID,23.9316,VALID,48,VALID,0,
2015-08-21, 09:43:04,VALID,919.923,VALID,0,VALID,79.2912,VALID,342.522,VALID,24.0896,VALID,55,VALID,0,
2015-08-21, 09:44:04,VALID,919.944,VALID,0,VALID,78.9557,VALID,477.683,VALID,24.2049,VALID,25,VALID,0,
2015-08-21, 09:45:04,VALID,919.934,VALID,0,VALID,78.1476,VALID,481.336,VALID,24.2849,VALID,22,VALID,0,
2015-08-21, 09:46:04,VALID,919.957,VALID,0,VALID,79.2225,VALID,442.98,VALID,24.3611,VALID,19,VALID,0,
2015-08-21, 09:47:04,VALID,919.924,VALID,0,VALID,78.2086,VALID,334.142,VALID,24.4587,VALID,38,VALID,0,
2015-08-21, 09:48:04,VALID,919.942,VALID,0,VALID,77.5759,VALID,414.938,VALID,24.4587,VALID,297,VALID,0,
2015-08-21, 09:49:04,VALID,919.921,VALID,0,VALID,78.3535,VALID,475.535,VALID,24.244,VALID,15,VALID,0.610156,
2015-08-21, 09:50:04,VALID,919.906,VALID,0,VALID,79.4665,VALID,478.865,VALID,24.1073,VALID,344,VALID,0,
2015-08-21, 09:51:04,VALID,919.899,VALID,0,VALID,79.6647,VALID,413.541,VALID,24.0683,VALID,17,VALID,0.898828,
2015-08-21, 09:52:04,VALID,919.885,VALID,0,VALID,79.7333,VALID,383.35,VALID,24.0683,VALID,3,VALID,1.1875,
2015-08-21, 09:53:04,VALID,919.885,VALID,0,VALID,80.9683,VALID,500.461,VALID,23.9707,INVALID,360,VALID,0,
2015-08-21, 09:54:04,VALID,919.867,VALID,0,VALID,78.9938,VALID,467.799,VALID,24.0097,VALID,333,VALID,0.0632813,
2015-08-21, 09:55:04,VALID,919.9,VALID,0,VALID,78.2925,VALID,331.456,VALID,24.0878,VALID,345,VALID,0,
2015-08-21, 09:56:04,VALID,919.891,VALID,0,VALID,78.3382,VALID,343.704,VALID,23.8926,VALID,321,VALID,0.000390625,
2015-08-21, 09:57:04,VALID,919.928,VALID,0,VALID,79.0091,VALID,290.521,VALID,23.6761,VALID,286,VALID,0,
2015-08-21, 09:58:04,VALID,919.929,VALID,0,VALID,81.5172,VALID,286.008,VALID,23.6779,VALID,2,VALID,0,
2015-08-21, 09:59:04,VALID,919.936,VALID,0,VALID,80.4499,VALID,268.066,VALID,23.7169,VALID,8,VALID,1.94375,
2015-08-21, 10:00:04,VALID,919.917,VALID,0,VALID,79.6418,VALID,395.491,VALID,23.7169,VALID,30,VALID,0,
2015-08-21, 10:01:04,VALID,919.914,VALID,0,VALID,79.1997,VALID,390.549,VALID,23.6956,VALID,20,VALID,0,
2015-08-21, 10:02:04,VALID,919.94,VALID,0,VALID,81.319,VALID,588.348,VALID,23.8145,VALID,42,VALID,0,
2015-08-21, 10:03:04,VALID,919.9,VALID,0,VALID,80.4957,VALID,640.457,VALID,24.0488,VALID,42,VALID,0,
2015-08-21, 10:04:04,VALID,919.929,VALID,0,VALID,78.5059,VALID,432.451,VALID,24.3221,VALID,42,VALID,0,
2015-08-21, 10:05:04,VALID,919.945,VALID,0,VALID,77.5378,VALID,634.655,VALID,24.6326,VALID,10,VALID,0,
2015-08-21, 10:06:04,VALID,919.925,VALID,0,VALID,76.3866,VALID,624.555,VALID,24.7302,VALID,312,VALID,0,
2015-08-21, 10:07:04,VALID,919.959,VALID,0,VALID,76.9126,VALID,372.928,VALID,24.8492,VALID,346,VALID,0,
2015-08-21, 10:08:04,VALID,919.921,VALID,0,VALID,75.4794,VALID,551.71,VALID,24.9274,VALID,6,VALID,0,
2015-08-21, 10:09:04,VALID,919.93,VALID,0,VALID,73.9014,VALID,431.591,VALID,24.9859,VALID,353,VALID,0,
2015-08-21, 10:10:04,VALID,919.934,VALID,0,VALID,74.6332,VALID,504.651,VALID,24.9059,VALID,355,VALID,0,
2015-08-21, 10:11:04,VALID,919.953,VALID,0,VALID,75.2431,VALID,627.886,VALID,25.0231,VALID,357,VALID,0,
2015-08-21, 10:12:04,VALID,919.938,VALID,0,VALID,74.1911,VALID,403.012,VALID,25.2379,VALID,342,VALID,0,
2015-08-21, 10:13:04,VALID,919.953,VALID,0,VALID,73.9548,VALID,650.664,VALID,25.1598,VALID,289,VALID,0,
2015-08-21, 10:14:04,VALID,919.942,VALID,0,VALID,73.5126,VALID,442.228,VALID,24.9859,VALID,265,VALID,0,
2015-08-21, 10:15:04,VALID,919.919,VALID,0,VALID,75.8987,VALID,351.118,VALID,25.0426,VALID,278,VALID,0,
2015-08-21, 10:16:04,VALID,919.88,VALID,0,VALID,75.4794,VALID,544.619,VALID,25.2183,VALID,31,VALID,0.366406,
2015-08-21, 10:17:04,VALID,919.855,VALID,0,VALID,73.9853,VALID,702.45,VALID,25.355,VALID,331,VALID,0,
2015-08-21, 10:18:04,VALID,919.822,VALID,0,VALID,76.0131,VALID,711.475,VALID,25.4527,VALID,31,VALID,0.948438,
2015-08-21, 10:19:04,VALID,919.823,VALID,0,VALID,74.9839,VALID,634.762,VALID,25.6089,VALID,355,VALID,0.00195313,
2015-08-21, 10:20:04,VALID,919.798,VALID,0,VALID,74.7323,VALID,347.787,VALID,25.5894,VALID,25,VALID,0.564844,
2015-08-21, 10:21:04,VALID,919.77,VALID,0,VALID,73.6346,VALID,677.524,VALID,25.5523,VALID,329,VALID,0,
2015-08-21, 10:22:04,VALID,919.738,VALID,0,VALID,73.2153,VALID,686.227,VALID,25.2593,VALID,293,VALID,0.169922,
2015-08-21, 10:23:04,VALID,919.722,VALID,0,VALID,77.4692,VALID,530.222,VALID,25.0055,VALID,39,VALID,0.206641,
2015-08-21, 10:24:04,VALID,919.686,VALID,0,VALID,76.6611,VALID,406.235,VALID,24.984,VALID,12,VALID,1.26563,
2015-08-21, 10:25:04,VALID,919.703,VALID,0,VALID,78.5288,VALID,338.547,VALID,25.0055,VALID,345,VALID,0,
2015-08-21, 10:26:04,VALID,919.67,VALID,0,VALID,74.2978,VALID,333.82,VALID,24.8083,VALID,282,VALID,0.00195313,
2015-08-21, 10:27:04,VALID,919.667,VALID,0,VALID,76.3942,VALID,472.634,VALID,24.6326,VALID,25,VALID,0.0417969,
2015-08-21, 10:28:04,VALID,919.681,VALID,0,VALID,75.4489,VALID,714.806,VALID,24.6149,VALID,316,VALID,0,
2015-08-21, 10:29:04,VALID,919.691,VALID,0,VALID,76.2342,VALID,718.889,VALID,24.654,VALID,34,VALID,0.36875,
2015-08-21, 10:30:04,VALID,919.661,VALID,0,VALID,77.9342,VALID,395.061,VALID,24.7107,VALID,17,VALID,0.009375,
2015-08-21, 10:31:04,VALID,919.641,VALID,0,VALID,74.9229,VALID,379.482,VALID,24.6131,VALID,282,VALID,0.00585938,
2015-08-21, 10:32:04,VALID,919.615,VALID,0,VALID,76.257,VALID,402.689,VALID,24.4197,VALID,299,VALID,0,
2015-08-21, 10:33:04,VALID,919.619,VALID,0,VALID,78.8642,VALID,604.679,VALID,24.4783,VALID,257,VALID,0,
2015-08-21, 10:34:04,VALID,919.638,VALID,0,VALID,75.8911,VALID,712.657,VALID,24.5155,VALID,275,VALID,0.685547,
2015-08-21, 10:35:04,VALID,919.616,VALID,0,VALID,77.8732,VALID,369.49,VALID,24.535,VALID,246,VALID,0,
2015-08-21, 10:36:04,VALID,919.634,VALID,0,VALID,78.4526,VALID,357.672,VALID,24.8083,VALID,24,VALID,0,
2015-08-21, 10:37:04,VALID,919.637,VALID,0,VALID,74.3588,VALID,346.927,VALID,25.0212,VALID,1,VALID,0,
2015-08-21, 10:38:04,VALID,919.63,VALID,0,VALID,75.914,VALID,417.624,VALID,25.1188,VALID,17,VALID,1.18867,
2015-08-21, 10:39:04,VALID,919.68,VALID,0,VALID,75.6319,VALID,495.089,VALID,25.2164,VALID,26,VALID,0.208594,
2015-08-21, 10:40:04,VALID,919.692,VALID,0,VALID,75.9292,VALID,782.601,VALID,25.3336,VALID,341,VALID,0,
2015-08-21, 10:41:04,VALID,919.697,VALID,0,VALID,73.6041,VALID,739.947,VALID,25.3922,VALID,23,VALID,1.00625,
2015-08-21, 10:42:04,VALID,919.682,VALID,0,VALID,74.2521,VALID,374.647,VALID,25.4312,VALID,53,VALID,0.0121094,
2015-08-21, 10:43:04,VALID,919.649,VALID,0,VALID,75.9902,VALID,339.836,VALID,25.5484,VALID,13,VALID,0.142969,
2015-08-21, 10:44:04,VALID,919.639,VALID,0,VALID,70.6919,VALID,383.672,VALID,25.5503,VALID,335,VALID,0.303516,
2015-08-21, 10:45:04,VALID,919.627,VALID,0,VALID,76.3028,VALID,596.836,VALID,25.316,VALID,11,VALID,1.20508,
2015-08-21, 10:46:04,VALID,919.661,VALID,0,VALID,75.7158,VALID,588.348,VALID,25.3355,VALID,354,VALID,0.0195313,
2015-08-21, 10:47:04,VALID,919.646,VALID,0,VALID,74.5494,VALID,676.02,VALID,25.5132,VALID,6,VALID,0,
2015-08-21, 10:48:04,VALID,919.666,VALID,0,VALID,74.0157,VALID,372.284,VALID,25.6675,VALID,352,VALID,0,
2015-08-21, 10:49:04,VALID,919.642,VALID,0,VALID,73.6498,VALID,677.094,VALID,25.7261,VALID,316,VALID,0,
2015-08-21, 10:50:04,VALID,919.641,VALID,0,VALID,71.5458,VALID,418.698,VALID,25.7261,VALID,272,VALID,0,
2015-08-21, 10:51:04,VALID,919.608,VALID,0,VALID,73.1695,VALID,422.244,VALID,25.8413,VALID,15,VALID,0,
2015-08-21, 10:52:04,VALID,919.606,VALID,0,VALID,72.026,VALID,310.29,VALID,25.9019,VALID,14,VALID,0,
2015-08-21, 10:53:04,VALID,919.596,VALID,0,VALID,72.6359,VALID,341.985,VALID,25.7651,VALID,32,VALID,0.00195313,
2015-08-21, 10:54:04,VALID,919.584,VALID,0,VALID,73.8023,VALID,783.891,VALID,25.7847,VALID,19,VALID,0,
2015-08-21, 10:55:04,VALID,919.548,VALID,0,VALID,70.8901,VALID,821.925,VALID,25.8413,VALID,339,VALID,0,
2015-08-21, 10:56:04,VALID,919.53,VALID,0,VALID,73.2458,VALID,489.717,VALID,25.8628,VALID,15,VALID,0,
2015-08-21, 10:57:04,VALID,919.524,VALID,0,VALID,71.1112,VALID,453.939,VALID,25.8433,VALID,16,VALID,0,
2015-08-21, 10:58:04,VALID,919.486,VALID,0,VALID,72.857,VALID,754.452,VALID,25.8433,VALID,29,VALID,0,
2015-08-21, 10:59:04,VALID,919.465,VALID,0,VALID,71.6372,VALID,476.716,VALID,26.019,VALID,356,VALID,0,
2015-08-21, 11:00:04,VALID,919.464,VALID,0,VALID,71.0274,VALID,411.177,VALID,26.1753,VALID,360,VALID,0.314063,
2015-08-21, 11:01:04,VALID,919.43,VALID,0,VALID,70.4556,VALID,324.58,VALID,25.8413,VALID,339,VALID,0.009375,
2015-08-21, 11:02:04,VALID,919.437,VALID,0,VALID,75.7691,VALID,323.076,VALID,25.4331,VALID,25,VALID,0,
2015-08-21, 11:03:04,VALID,919.44,VALID,0,VALID,74.9611,VALID,432.88,VALID,25.2769,VALID,20,VALID,0,
2015-08-21, 11:04:04,VALID,919.395,VALID,0,VALID,73.6879,VALID,440.401,VALID,25.2769,VALID,294,VALID,0,
2015-08-21, 11:05:04,VALID,919.369,VALID,0,VALID,75.205,VALID,785.287,VALID,25.3355,VALID,8,VALID,0,
2015-08-21, 11:06:04,VALID,919.338,VALID,0,VALID,72.9942,VALID,622.621,VALID,25.5289,VALID,336,VALID,0,
2015-08-21, 11:07:04,VALID,919.28,VALID,0,VALID,75.9826,VALID,437.823,VALID,25.7066,VALID,11,VALID,0,
2015-08-21, 11:08:04,VALID,919.264,VALID,0,VALID,71.4314,VALID,421.492,VALID,25.7437,VALID,212,VALID,0,
2015-08-21, 11:09:04,VALID,919.294,VALID,0,VALID,72.4377,VALID,536.669,VALID,25.7046,VALID,215,VALID,0,
2015-08-21, 11:10:04,VALID,919.263,VALID,0,VALID,72.6816,VALID,709.649,VALID,25.607,VALID,49,VALID,0,
2015-08-21, 11:11:04,VALID,919.206,VALID,0,VALID,73.1467,VALID,684.615,VALID,25.4312,VALID,302,VALID,0.208594,
2015-08-21, 11:12:04,VALID,919.2,VALID,0,VALID,74.2063,VALID,564.926,VALID,25.355,VALID,11,VALID,0.0289063,
2015-08-21, 11:13:04,VALID,919.195,VALID,0,VALID,75.0678,VALID,604.786,VALID,25.1774,VALID,7,VALID,1.01406,
2015-08-21, 11:14:04,VALID,919.19,VALID,0,VALID,76.5543,VALID,651.523,VALID,25.0798,VALID,16,VALID,0.155469,
2015-08-21, 11:15:04,VALID,919.17,VALID,0,VALID,74.8848,VALID,642.928,VALID,25.1774,VALID,309,VALID,0,
2015-08-21, 11:16:04,VALID,919.158,VALID,0,VALID,74.9458,VALID,697.186,VALID,25.1969,VALID,296,VALID,0,
2015-08-21, 11:17:04,VALID,919.137,VALID,0,VALID,75.1669,VALID,691.706,VALID,25.3726,VALID,358,VALID,0.0839844,
2015-08-21, 11:18:04,VALID,919.148,VALID,0,VALID,74.374,VALID,531.941,VALID,25.5679,VALID,37,VALID,0,
2015-08-21, 11:19:04,VALID,919.158,VALID,0,VALID,72.6664,VALID,349.184,VALID,25.8413,VALID,42,VALID,0,
2015-08-21, 11:20:04,VALID,919.184,VALID,0,VALID,72.4911,VALID,393.664,VALID,26.0757,VALID,21,VALID,0,
2015-08-21, 11:21:04,VALID,919.183,VALID,0,VALID,70.974,VALID,828.479,VALID,26.0952,VALID,47,VALID,0,
2015-08-21, 11:22:04,VALID,919.136,VALID,0,VALID,72.7655,VALID,679.673,VALID,26.0952,VALID,46,VALID,0,
2015-08-21, 11:23:04,VALID,919.126,VALID,0,VALID,73.0399,VALID,455.873,VALID,26.2319,VALID,20,VALID,0.192969,